This is the latest recevied weather packets stored in our database for station/object IA5ITY-13. If no packets are shown the sender has not sent any weather packets the latest 10 day(s).
| Time | Temp. | Humidity | Pressure | Rain* | Wind** | Luminosity | Snow |
|---|---|---|---|---|---|---|---|
| 1777676109 | 17.22° C | 12% | 1023.2 hPa | 0 mm | - | - | - |
| 1777675812 | 17.22° C | 10% | 1023.1 hPa | 0 mm | - | - | - |
| 1777675512 | 17.22° C | 10% | 1023.1 hPa | 0 mm | - | - | - |
| 1777675213 | 17.22° C | 10% | 1023.1 hPa | 0 mm | - | - | - |
| 1777674909 | 17.22° C | 11% | 1023 hPa | 0 mm | - | - | - |
| 1777674623 | 17.22° C | 10% | 1023 hPa | 0 mm | - | - | - |
| 1777673712 | 17.22° C | 11% | 1022.8 hPa | 0 mm | - | - | - |
| 1777673412 | 17.22° C | 10% | 1022.7 hPa | 0 mm | - | - | - |
| 1777673108 | 17.22° C | 10% | 1022.6 hPa | 0 mm | - | - | - |
| 1777672832 | 17.22° C | 9% | 1022.6 hPa | 0 mm | - | - | - |
| 1777672212 | 17.78° C | 11% | 1022.5 hPa | 0 mm | - | - | - |
| 1777671912 | 17.22° C | 12% | 1022.6 hPa | 0 mm | - | - | - |
| 1777671612 | 17.22° C | 13% | 1022.5 hPa | 0 mm | - | - | - |
| 1777671309 | 17.22° C | 13% | 1022.8 hPa | 0 mm | - | - | - |
| 1777671022 | 17.22° C | 18% | 1022.9 hPa | 0 mm | - | - | - |
| 1777670709 | 17.22° C | 18% | 1022.9 hPa | 0 mm | - | - | - |
| 1777670412 | 16.11° C | 23% | 1022.9 hPa | 0 mm | - | - | - |
| 1777670113 | 16.11° C | 24% | 1022.9 hPa | 0 mm | - | - | - |
| 1777669811 | 16.11° C | 24% | 1022.9 hPa | 0 mm | - | - | - |
| 1777669233 | 17.22° C | 24% | 1022.9 hPa | 0 mm | - | - | - |
| 1777668908 | 17.22° C | 24% | 1022.8 hPa | 0 mm | - | - | - |
| 1777668612 | 17.22° C | 23% | 1022.8 hPa | 0 mm | - | - | - |
| 1777668312 | 17.22° C | 25% | 1022.8 hPa | 0 mm | - | - | - |
| 1777668013 | 17.22° C | 26% | 1022.8 hPa | 0 mm | - | - | - |
| 1777667709 | 17.22° C | 28% | 1022.7 hPa | 0 mm | - | - | - |
* Rain latest hour (hover to see other rain measurements)
** Current wind speed in m/s (hover to see current wind gust speed)